Location: �chenoz-la-M�line
(47.6009°N, 6.1354°E)
Time: 01:09:47
(UTC+00:00)

Cosmos 1980 - Visible Passes

Search period start: 02 December 2021 00:00
Search period end: 12 December 2021 00:00
Orbit: 839 x 847 km, 71.0° (Epoch: 01 December)

Date Brightness Start Highest point End Pass type
(mag) Time Alt. Az. Time Alt. Az. Time Alt. Az.
07 Dec 5.9 18:12:27 10° N 18:12:46 11° N 18:12:46 11° N visible
08 Dec 5.8 17:57:53 10° N 17:58:35 11° NNE 17:58:35 11° NNE visible
09 Dec 5.7 17:43:19 10° N 17:44:25 12° NNE 17:44:25 12° NNE visible
09 Dec 6.2 19:25:51 10° NNW 19:26:16 12° NNW 19:26:16 12° NNW visible
10 Dec 5.6 17:28:47 10° N 17:30:18 12° NNE 17:30:18 12° NNE visible
10 Dec 5.9 19:11:13 10° NNW 19:12:09 15° NNW 19:12:09 15° NNW visible
11 Dec 5.6 17:14:15 10° N 17:16:13 12° NNE 17:16:13 12° NNE visible
11 Dec 5.7 18:56:36 10° NNW 18:58:04 18° N 18:58:04 18° N visible
